Flag for U.S.A. Weather past 2 weeks in Ontario, California, U.S.A.

Now
70 °F

Clear.


Feels Like: 73 °F
Forecast: 66 / 93 °F
Wind: 10 mph from West

Location: Ontario International Airport

Current Time: Aug 2, 2015 at 12:16:51 AM

Latest Report: Aug 1, 2015 at 11:53 PM


Visibility: 10 mi

Pressure: 29.88 "Hg

Humidity: 73%

Dew point: 61 °F

Location of OntarioLocation

Historic Weather in Ontario — Graph

°F

Ontario temperature yesterday

Maximum temperature yesterday: 94 °F (at 2:53 PM)
Minimum temperature yesterday: 67 °F (at 5:53 AM)
Average temperature yesterday: 78 °F

Past Weeks' High & Low Weather Summary

 TemperatureHumidityPressure
High96 °F (Jul 30, 1:53 PM)93% (Jul 20, 3:53 AM)30.05 "Hg (Jul 20, 3:53 AM)
Low65 °F (Jul 23, 5:53 AM)20% (Jul 25, 3:53 PM)29.76 "Hg (Jul 28, 4:53 PM)
Average77 °F62%29.91 "Hg
* Reported Jul 17 10:53 PM — Aug 1 10:53 PM, Ontario, Weather by CustomWeather, © 2015

Note: Actual official high and low records may vary slightly from our data, if they occured in-between our weather recording intervals... More about our weather records

Advertising

Ontario weather history for previous 24 hours

 ConditionsComfort  
Time TempWeatherWind HumidityBarometerVisibility
10:53 PM
Sat, Aug 1
72 °FPassing clouds.10 mph66%29.88 "Hg10 mi
9:53 PM73 °FPartly cloudy.9 mph64%29.88 "Hg10 mi
8:53 PM76 °FPassing clouds.10 mph60%29.86 "Hg10 mi
7:53 PM79 °FPartly sunny.10 mph54%29.85 "Hg10 mi
6:53 PM84 °FPartly sunny.12 mph46%29.83 "Hg10 mi
5:53 PM87 °FPartly sunny.14 mph42%29.83 "Hg10 mi
4:53 PM89 °FPartly sunny.13 mph39%29.83 "Hg10 mi
3:53 PM93 °FScattered clouds.15 mph33%29.83 "Hg10 mi
2:53 PM94 °FScattered clouds.15 mph30%29.83 "Hg10 mi
1:53 PM92 °FScattered clouds.12 mph32%29.85 "Hg10 mi
12:53 PM87 °FPassing clouds.10 mph40%29.88 "Hg10 mi
11:53 AM85 °FPassing clouds.8 mph45%29.90 "Hg10 mi
10:53 AM80 °FPassing clouds.3 mph54%29.92 "Hg8 mi
9:53 AM75 °FHaze.6 mph66%29.94 "Hg5 mi
8:53 AM72 °FHaze.No wind73%29.94 "Hg4 mi
7:53 AM68 °FScattered clouds.7 mph84%29.95 "Hg3 mi
6:53 AM67 °FFog.7 mph87%29.94 "Hg3 mi
5:53 AM67 °FFog.5 mph87%29.92 "Hg5 mi
4:53 AM68 °FPassing clouds.6 mph87%29.91 "Hg8 mi
3:53 AM69 °FPassing clouds.5 mph84%29.91 "Hg9 mi
2:53 AM70 °FPassing clouds.5 mph81%29.92 "Hg10 mi
1:53 AM71 °FPassing clouds.6 mph76%29.91 "Hg10 mi
12:53 AM72 °FPassing clouds.6 mph73%29.92 "Hg10 mi
Weather by CustomWeather, © 2015

See weather overviewHow to use our weather pages